events-overview

 

Vulcan Run 2015 - Overall Male Results

** Results are for the private use of participants and are the Intellectual Property of Set Up Events. Unauthorized use of these results is prohibited.

Place Bib NAME Age Sex CITY/STATE TeamName GunTime GunPace TagTime TagPace
113KANE GRIMSTER23MAUBURN AL 00:29:4100:04:4800:29:4100:04:48
21156JULIUS KOSKEI33MHEBRON KY 00:30:0100:04:5100:30:0100:04:51
31150PATRICK CHEPTOEK29MMURFREESBORO TN 00:30:3800:04:5700:30:3800:04:57
414CORY LESLIE26MGREENVILLE SC 00:30:4400:04:5800:30:4400:04:58
51044KENNEDY KEMEI37MHEBRON KY 00:31:2700:05:0500:31:2700:05:05
618WILKERSON GIVEN24MGREENVILLE SC 00:31:3500:05:0600:31:3500:05:06
711SEAN BROWN27MHOOVER AL 00:32:3300:05:1500:32:3300:05:15
812AUSTIN DUCKWORTH26MAUSTIN TXCAHABA DISTANCE PROJECT00:32:4200:05:1700:32:4200:05:17
916SAMUEL MUELLER23MBIRMINGHAM AL 00:32:5600:05:1900:32:5600:05:19
1017JAY STEPHENSON34MROME GA 00:33:0600:05:2100:33:0600:05:21
111149DAVID MOKONE24MBOWLING GREEN KY 00:34:1400:05:3200:34:1400:05:32
1219SCOTT FUQUA32MIRONDALE ALCAHABA DISTANCE PROJECT00:34:1400:05:3200:34:1400:05:32
1333MARK PEPIN27MHOMEWOOD AL 00:36:0500:05:5000:36:0500:05:50
1432MICHAEL BROWN31MBIRMINGHAM ALRUNNINGLANE00:36:1600:05:5100:36:1600:05:51
1534MICHAEL NIEZGODA26MBIRMINGHAM ALCAHABA DISTANCE PROJECT00:36:2000:05:5200:36:2000:05:52
16197GOLDEN COACHMAN31MBIRMINGHAM AL 00:36:2100:05:5200:36:2100:05:52
1720MATTHEW HAMMERSMITH28MGREENVILLE SC 00:36:2100:05:5200:36:2100:05:52
18898GATLIN HOLLAND20MGARDENDALE ALCADENCE RUN COACHING BLUE00:36:3900:05:5500:36:3900:05:55
19325JOHN MARK GOODMAN35MBIRMINGHAM ALCAHABA DISTANCE PROJECT00:36:4000:05:5500:36:4000:05:55
20434CORY JONES24MBIRMINGHAM AL 00:36:4300:05:5600:36:4300:05:56
211148CHRIS MAHAFFEY33MODENVILLE AL 00:37:0000:05:5800:37:0000:05:58
2231WILL RODGERS27MPELHAM ALRUNNINGLANE00:37:0200:05:5900:37:0200:05:59
23511BRANDON MADER31MHUNTSVILLE ALRUNNINGLANE00:37:0700:06:0000:37:0700:06:00
24514MICHAEL MARQUARDT35MCALERA ALTHE TRAK SHAK 100:37:1700:06:0100:37:1700:06:01
25744KEN STOLTZFUS43MHOOVER AL 00:37:3000:06:0300:37:3000:06:03
2686BEAU BEARD31MBIRMINGHAM AL 00:37:3700:06:0400:37:3000:06:03
27746SCOTT STRAND47MBIRMINGHAM ALTHE TRAK SHAK 100:37:4200:06:0500:37:4200:06:05
28600BRAD OLZINSKI28MPELHAM AL 00:38:0900:06:1000:38:0900:06:10
2929JEFF MARTINEZ41MVESTAVIA HILLS ALTHE TRAK SHAK 100:38:2300:06:1200:38:2300:06:12
3027JEFF CLARK50MMCCALLA AL 00:38:3300:06:1400:38:3300:06:14
PlaceBibNAMEAgeSexCITY/STATETeamNameGunTimeGunPaceTagTimeTagPace
311033JOSH DONALDSON25MBIRMINGHAM AL 00:38:3800:06:1400:38:3200:06:13
32625BARRY PHILLIPS20MNASHVILLE TN 00:38:3900:06:1500:38:3900:06:15
33849TIMOTHY WILLIAMS38MBIRMINGHAM AL 00:39:0600:06:1900:39:0000:06:18
34559NATHAN MIYASAKI33MBIRMINGHAM AL 00:39:1400:06:2000:39:0800:06:19
35221DAMON COX37MHOMEWOOD AL 00:39:1600:06:2000:38:3700:06:14
36151BRANDON BYRD29MBIRMINGHAM AL 00:39:2300:06:2200:39:1700:06:21
37567CARY MORGAN43MBIRMINGHAM ALCADENCE RUN COACHING BLUE00:39:2700:06:2200:39:2100:06:21
38827ADAM WENDE37MVESTAVIA HILLS AL 00:39:2800:06:2200:39:2800:06:22
39639LARS PORTER34MBIRMINGHAM ALTHE TRAK SHAK 200:39:3700:06:2400:39:3700:06:24
401170ZACHARY ONDARA24MBIRMINGHAM AL 00:39:4100:06:2400:39:4100:06:24
41565PHILLIP MOORE30MBIRMINGHAM ALTHE TRAK SHAK 200:39:4300:06:2500:39:4300:06:25
42606CHARLIE PARKS35MBIRMINGHAM AL 00:40:0500:06:2800:39:5900:06:27
43695DANNY SHAFFIELD42MVESTAVIA HILLS AL 00:40:0800:06:2900:40:0100:06:28
44614DAVID PEACOCK46MBIRMINGHAM ALTHE TRAK SHAK 200:40:2000:06:3100:40:1400:06:30
45936ROBERT THOMPSON37MBIRMINGHAM AL 00:40:2700:06:3200:40:2000:06:31
46934TAYLOR STINSON24MBIRMINGHAM AL 00:40:3600:06:3300:40:3600:06:33
47687MIKE SCHOR52MBIRMINGHAMA AL 00:40:5300:06:3600:40:4600:06:35
48590THE MIGHTY NERDNOF30MBIRMINGHAM AL 00:41:0100:06:3700:40:5400:06:36
491038JON GRAHAM39MBIRMINGHAM AL 00:41:0200:06:3700:40:5400:06:36
501166STEVE HICKS45MVESTAVIA HILLS AL 00:41:0600:06:3800:41:0600:06:38
51654JAMES REDIKER33MBIRMINGHAM AL 00:41:2500:06:4100:41:1800:06:40
52421TRAVIS JOHNSON40MBIRMINGHAM AL 00:41:3200:06:4200:41:3200:06:42
53688MICHAEL SCHOR21MBIRMINGHAM AL 00:41:4200:06:4400:41:3500:06:43
54534JUSTIN MCDONALD47MBIRMINGHAM AL 00:41:4600:06:4500:41:3900:06:43
55388ZACHARY HOLCOMB21MBIRMINGHAM AL 00:41:5700:06:4600:41:5100:06:45
56362CHAD HATHORNE47MHOMEWOOD AL 00:41:5800:06:4600:41:5100:06:45
57381QUINN HILL38MLEEDS AL 00:42:0000:06:4700:41:5300:06:46
58243PATRICK DAVIS22MBIRMINGHAM AL 00:42:0400:06:4800:42:0400:06:48
59847RUSSELL WILLIAMS46MBIRMINGHAM AL 00:42:0900:06:4800:42:0300:06:47
60340CARY GUFFEY43MBIRMINGHAM AL 00:42:1300:06:4900:42:0600:06:48
6180ROBERT BARBER40MHOOVER AL 00:42:1600:06:4900:42:1000:06:48
PlaceBibNAMEAgeSexCITY/STATETeamNameGunTimeGunPaceTagTimeTagPace
62346DAVE HALPERIN47MBIRMINGHAM AL 00:42:1800:06:5000:42:1100:06:49
63685SCOTT SANDLIN36MHUNTSVILLE AL 00:42:2900:06:5200:42:2100:06:50
64771SHAUN TILLERY35MLEEDS AL 00:42:3500:06:5200:42:2800:06:51
65206NATHAN COLLINS39MBIRMINGHAM AL 00:42:4100:06:5400:42:2800:06:51
66757ERIC THOMAS38MADAMSVILLE AL 00:42:4700:06:5400:42:3200:06:52
671020EVAN BAGGETT35MBIRMINGHAM AL 00:42:4900:06:5500:42:3800:06:53
68249DAVID DENARD47MTRUSSVILLE AL 00:42:5000:06:5500:42:4100:06:54
69415ALEXANDER JAFFERY20MTUSCALOOSA AL 00:42:5400:06:5600:42:5400:06:56
70700PETER SHEAROUSE28MBIRMINGHAM AL 00:42:5500:06:5600:42:4900:06:55
71245RON DEAN46MBIRMINGHAM AL 00:42:5600:06:5600:42:4900:06:55
72135CAMERON BROWN26MBIRMINGHAM AL 00:42:5800:06:5600:42:5200:06:55
731146KEVIN STOLTZ28MBIRMINGHAM AL 00:43:0100:06:5700:42:4700:06:54
74481TIM LEE53MCULLMAN AL 00:43:0100:06:5700:42:5500:06:56
75991TIM PEMBERTON38MODENVILLE AL 00:43:1300:06:5900:43:0600:06:58
76519ADAM MARTZ32MGARDENDALE AL 00:43:1300:06:5900:43:0100:06:57
77412JOSEPH JACKSON25MVESTAVIA ALMUGGLE HUSTLE00:43:1800:06:5900:43:0100:06:57
78811JOSHUA WASHINGTON20MMERIDIANVILLE AL 00:43:1900:07:0000:43:0300:06:57
79165CRAIG CECIL65MBIRMINGHAM AL 00:43:2300:07:0000:43:1500:06:59
801014THOMAS WOLFE15MBIRMINGHAM AL 00:43:2500:07:0100:43:2500:07:01
81129HANK BROWN62MVESTAVIA HILLS AL 00:43:3000:07:0100:43:2200:07:00
82201JOSH COFIELD16MALABASTER AL 00:43:3100:07:0100:43:3100:07:01
831095WALTER MCCORD24MBIRMINGHAM AL 00:43:3200:07:0200:43:1200:06:58
841167TRISTAN TILLETTE40MBIRMINGHAM AL 00:43:4200:07:0300:43:1100:06:58
85662KEVIN ROBERSON54MMOUNT OLIVE AL 00:43:4400:07:0400:43:3700:07:03
861107KEVIN BOKUS41MBIRMINGHAM AL 00:43:4600:07:0400:43:3700:07:03
87119JOSH BOYD15MASHVILLE AL 00:43:4600:07:0400:43:3900:07:03
881117RETIRED HOOVER50MBIRMINGHAM AL 00:43:4900:07:0400:43:4000:07:03
89196ADDISON CLOWERS27MBIRMINGHAM AL 00:43:5200:07:0500:43:4300:07:03
90267DANIEL DYE38MBIRMINGHAM AL 00:43:5800:07:0600:43:3100:07:02
91265STEVEN DUKE43MHOMEWOOD AL 00:44:0400:07:0700:43:5600:07:06
92945MURPHY WRIGHT15MHOMEWOOD AL 00:44:0700:07:0700:43:3600:07:02
PlaceBibNAMEAgeSexCITY/STATETeamNameGunTimeGunPaceTagTimeTagPace
931122JAY MCDIARMID48MHOOVER AL 00:44:1100:07:0800:43:5900:07:06
94972SANFORD HOOPER41MBIRMINGHAM AL 00:44:1300:07:0800:43:3700:07:02
951017TOMMY YARBROUGH23MBIRMINGHAM AL 00:44:1500:07:0900:44:0800:07:08
961030RENATO CORBETTA46MBIRMINGHAM AL 00:44:1800:07:0900:43:5100:07:05
971052CURT MARTIN34MBIRMINGHAM AL 00:44:2500:07:1000:43:5600:07:06
98455DANNER KLINE37MBIRMINGHAM AL 00:44:2900:07:1100:44:2200:07:10
991072NATE WILLIAMS28MBIRMINGHAM AL 00:44:2900:07:1100:44:1000:07:08
100525SIDNEY MAYS54MVESTAVIA AL 00:44:3200:07:1100:44:2500:07:10
101884JOSEPH DEASE39MVESTAVIA HILLS AL 00:44:3500:07:1200:44:3500:07:12
102104BRANDON BLACK36MBIRMINGHAM AL 00:44:4100:07:1300:44:3500:07:12
103669BILLY ROSE34MHOOVER ALCADENCE RUN COACHING BLUE00:44:5000:07:1400:44:4300:07:13
1041162ROGER WOOD40MBIRMINGHAM AL 00:45:0100:07:1600:44:4600:07:14
105633DAVID PLANTE53MBIRMINGHAM AL 00:45:0600:07:1700:45:0600:07:17
106835HAL WHITSITT32MVESTAVIA HILLS AL 00:45:0800:07:1700:45:0000:07:16
1071007BART SWECKER34MBIRMINGHAM AL 00:45:1000:07:1800:45:0300:07:16
108689WILL SCOGIN24MBIRMINGHAM ALMUGGLE HUSTLE00:45:1100:07:1800:44:5400:07:15
109220JAMES COUNSELL53MPRATTVILLE AL 00:45:1300:07:1800:45:0500:07:17
1101023STAN BLANTON57MBIRMINGHAM AL 00:45:1600:07:1800:44:5100:07:14
111929NATHAN SATURDAY37MBIRMINGHAM AL 00:45:1800:07:1900:45:1800:07:19
112865GARY YORK56MHOOVER AL 00:45:1900:07:1900:45:1900:07:19
113159CHRISTOPHER CAREY45MBIRMINGHAM AL 00:45:3100:07:2100:45:2100:07:19
114487DON LEOPARD50MSPRINGVILLE AL 00:45:3300:07:2100:45:1700:07:19
1151001ROBERT SCHWYN49MOXFORD AL 00:45:3500:07:2200:45:3500:07:22
116931MATT SEARSON34MBIRMINGHAM AL 00:45:3700:07:2200:45:1700:07:19
117115RYAN BOWERS29MHUNTSVILLE AL 00:45:4000:07:2200:45:4000:07:22
118345PHILIP HAKE34MHOMEWOOD AL 00:45:4300:07:2300:45:3400:07:21
1191088WILLIAM ELLIS35MMOUNTAIN BROOK AL 00:45:4800:07:2400:45:3700:07:22
120327IZZY GOULD41MVESTAVIA HILLS AL 00:45:5300:07:2400:45:1600:07:18
1211093JOHN ANDRESS12MBIRMINGHAM AL 00:45:5300:07:2400:45:4000:07:22
122894MATTHEW HALL36MBIRMINGHAM AL 00:45:5800:07:2500:45:4900:07:24
123829PETER WEST34MBIRMINGHAM AL 00:46:0100:07:2600:45:5200:07:24
PlaceBibNAMEAgeSexCITY/STATETeamNameGunTimeGunPaceTagTimeTagPace
124467TYLER LAHTI25MBIRMINGHAM AL 00:46:1100:07:2700:45:3400:07:21
12567NICK AYERS14MBIRMINGHAM AL 00:46:1600:07:2800:46:0200:07:26
126338BRENDAN GRIFFIN26MBIRMINGHAM AL 00:46:1600:07:2800:46:0300:07:26
1271136JAKE KENNAMER27MVESTAVIA HILLS AL 00:46:2000:07:2900:46:0100:07:26
1281079DAVID GORDON39MBIRMINGHAM AL 00:46:2400:07:3000:46:1800:07:28
129466JOSEPH LAHR28MBIRMINGHAM AL 00:46:3000:07:3000:46:2000:07:29
130399MIKE HOUSE42MMONTEVALLO AL 00:46:3500:07:3100:46:2500:07:30
131358JIMMY HARRISON49MBIRMINGHAM AL 00:46:3600:07:3100:46:2900:07:30
132163BARRY CASEY43MALABASTER AL 00:46:3700:07:3200:46:2600:07:30
133581JASON MURRAY34MHOOVER AL 00:46:3800:07:3200:46:2500:07:30
134256DREW DICKERSON42MNORTHPORT AL 00:46:3800:07:3200:46:2700:07:30
135961SCOTT CONAWAY53MODENVILLE AL 00:46:4400:07:3300:46:3700:07:32
1361097ROB CRABTREE52MBIRMINGHAM AL 00:46:4500:07:3300:46:3900:07:32
137647TODD PRINCE45MHOOVER AL 00:46:4800:07:3300:46:4100:07:32
138674PAUL ROSS43MVESTAVIA AL 00:46:5400:07:3400:46:3500:07:31
13991JACK BELL14MBIRMINGHAM AL 00:47:0200:07:3600:47:0200:07:36
140422CORY JOHNSON37MHOMEWOOD AL 00:47:0400:07:3600:46:5800:07:35
141895JOHN HAMITER36MVESTAVIA AL 00:47:0500:07:3600:46:5500:07:34
142864SOON YOON38MHOOVER AL 00:47:0600:07:3600:46:4400:07:33
143398ARMIN HORNIKEL25MNORTHPORT ALMUGGLE HUSTLE00:47:0900:07:3700:46:5200:07:34
1441075MATTHEW WOLFE32MBIRMINGHAM AL 00:47:2000:07:3800:47:0000:07:35
145564RYAN MOORE35MBIRMINGHAM AL 00:47:2400:07:3900:47:1700:07:38
146488ADAM LINDSEY40MBIRMINGHAM AL 00:47:2600:07:3900:47:2000:07:38
147301ROBERT FUNK52MPELL CITY AL 00:47:3300:07:4100:46:5900:07:35
148887LEWIS FISCHER13MBIRMINGHAM AL 00:47:4000:07:4200:47:4000:07:42
149353KENNETH HARKLESS64MBESSEMER AL 00:47:4400:07:4200:47:3600:07:41
150964MASON CROSS56MMOUNTAIN BROOK AL 00:47:4500:07:4200:47:3800:07:41
1511067STEVEN TROTTER41MHOOVER AL 00:47:4900:07:4300:47:3300:07:41
152809TOM WARREN62MHELENA AL 00:47:5000:07:4300:47:3900:07:42
153893HIBOOMBE HAAMANKULI32MBIRMINGHAM AL 00:47:5100:07:4300:47:3100:07:40
15470CHRISTOPHER BAGGETT41MBESSEMER AL 00:47:5700:07:4400:47:4400:07:42
PlaceBibNAMEAgeSexCITY/STATETeamNameGunTimeGunPaceTagTimeTagPace
155860RAY WORKMAN52MBIRMINGHAM AL 00:48:0000:07:4500:47:5400:07:44
156137DAVID BRYANT50MTRUSSVILLE AL 00:48:0300:07:4500:47:5600:07:44
157747DANNY SULLIVAN42MHELENA AL 00:48:1100:07:4700:47:3800:07:41
158636JIM POH57MBIRMINGHAM AL 00:48:1500:07:4700:48:0800:07:46
159996TATE RECORD13MBIRMINGHAM AL 00:48:1500:07:4700:48:1500:07:47
160620CHARLIE PETERS29MBIRMINGHAM AL 00:48:1700:07:4800:47:4700:07:43
161387CHRIS HOGGLE47MCOVINGTON LA 00:48:1700:07:4800:48:1100:07:47
162663FLETCHER ROBERTS25MBIRMINGHAM AL 00:48:2200:07:4900:48:0100:07:45
163580DERRICK MURPHY49MVESTAVIA HILLS AL 00:48:3700:07:5100:48:0500:07:46
164250TAYLOR DENARD45MTRUSSVILLE AL 00:48:4700:07:5300:48:4700:07:53
165286JONATHAN FIELD28MATLANTA GA 00:48:5100:07:5300:47:5700:07:44
1661064JASON SMITH46MBIRMINGHAM AL 00:48:5500:07:5400:48:4300:07:52
1671158MATTHEW MCWILLIAMS36MHOOVER AL 00:48:5900:07:5400:48:5200:07:53
1681034PATRICK FLYNN39MBIRMINGHAM AL 00:49:0300:07:5500:48:4300:07:52
1691021FRANK BARRY52MBIRMINGHAM AL 00:49:0400:07:5500:48:4800:07:53
170845DAVID WILLIAMS52MPELHAM AL 00:49:0700:07:5600:49:0700:07:56
17144CARLOS AGEA28MBIRMINGHAM AL 00:49:0900:07:5600:49:0100:07:55
172548MATTHEW MICHALKE32MODENVILLE AL 00:49:1100:07:5600:48:3900:07:51
173941JIM WILDER III38MVESTAVIA HILLS AL 00:49:2200:07:5800:48:5100:07:53
174530DAVID MCCOLLUM54MHOOVER AL 00:49:2600:07:5900:49:2000:07:58
175572WILLIAM MORROW44MBIRMINGHAM AL 00:49:3600:08:0000:48:5700:07:54
1761018JEFF AIKEN58MALABASTER AL 00:49:4200:08:0100:49:4200:08:01
177994WADE PYRON47MBIRMINGHAM AL 00:49:5100:08:0300:49:4500:08:02
1781051ANTHONY MARINO46MBIRMINGHAM AL 00:49:5100:08:0300:49:2300:07:58
179836J. WHITSON38MBIRMINGHAM AL 00:49:5600:08:0400:48:5600:07:54
180268WILL EARNHARDT13MBIRMINGHAM AL 00:50:0000:08:0400:49:3400:08:00
181218ROGER CORRIN46MBIRMINGHAM AL 00:50:1400:08:0700:50:1400:08:07
182951NICHOLAS BRADEN32MPELHAM AL 00:50:1600:08:0700:49:4400:08:02
183900MIKE HULEN40MALABASTER AL 00:50:1900:08:0700:50:0000:08:04
184134SEAN BROWN43MIRONDALE AL 00:50:2300:08:0800:50:1700:08:07
185103DYLAN BLACK47MBIRMINGHAM AL 00:50:3300:08:1000:50:3300:08:10
PlaceBibNAMEAgeSexCITY/STATETeamNameGunTimeGunPaceTagTimeTagPace
186430JASON JONES38MHOOVER AL 00:50:3600:08:1000:50:1700:08:07
187578WIL MULLINS27MGADSDEN AL 00:50:3800:08:1000:50:2600:08:09
18876MICHAEL BALLARD56MBIRMINGHAM AL 00:50:4000:08:1100:50:4000:08:11
1891049DAVID LOPER51MBIRMINGHAM AL 00:50:4400:08:1100:50:2200:08:08
190372PATRICK HICKERSON49MBIRMINGHAM AL 00:50:4500:08:1200:50:3200:08:09
191705DANIEL SILBERGER28MHOMEWOOD AL 00:50:4600:08:1200:50:3600:08:10
1921118DAVID JONES31MMT. OLIVE AL 00:50:5000:08:1200:50:3900:08:11
193617LUIS PEDROSA40MBIRMINGHAM AL 00:50:5000:08:1200:50:5000:08:12
194401PHILIP HOUSLER30MBIRMINGHAM AL 00:50:5300:08:1300:50:3700:08:10
195231AVERY CRUMP13MBIRMINGHAM AL 00:50:5600:08:1300:49:5100:08:03
1961040JOSH HANNUM54MBIRMINGHAM AL 00:50:5700:08:1300:50:4800:08:12
197127PATRICK BROCK48MCULLMAN AL 00:50:5900:08:1400:50:5100:08:13
198512TIM MALEC43MHELENA AL 00:51:0200:08:1400:50:5500:08:13
199640PAUL PORTWOOD47MSELMA AL 00:51:0400:08:1500:50:5000:08:12
2001112DEAN LEADER64MVESTAVIA HILLS AL 00:51:0400:08:1500:50:4400:08:11
2011012JOSH WOLFE13MBIRMINGHAM AL 00:51:0400:08:1500:50:5300:08:13
20293PAUL BENTLEY40MBIRMINGHAM AL 00:51:0700:08:1500:50:4500:08:12
203777JAMIE TRIMBLE47MVESTAVIA AL 00:51:1000:08:1600:50:3500:08:10
204164OCTAVIO CAVIEDES53MVESTAVIA HILLS AL 00:51:1300:08:1600:51:0200:08:14
2051081CHRISTIAN PRONATH52MBIRMINGHAM AL 00:51:1800:08:1700:50:4400:08:11
20679RAMOND BANKS58MBIRMINGHAM AL 00:51:2300:08:1800:51:1000:08:16
207116BRANDON BOYD35MBIRMINGHAM AL 00:51:2500:08:1800:51:0400:08:15
208450BOBBY KEY32MBIRMINGHAM AL 00:51:3000:08:1900:51:0900:08:15
2091154DIAMOND VROCHER40MTRUSSVILLE AL 00:51:3300:08:1900:50:5500:08:13
210161CHAD CARROLL24MMOODY AL 00:51:3500:08:2000:51:2600:08:18
211213MICHAEL CONNORS31MTRUSSVILLE AL 00:51:3600:08:2000:51:2100:08:17
212686CRAIG SATTERFIELD55MBIRMINGHAM AL 00:51:3600:08:2000:51:3600:08:20
213855STEPHEN WITHEE29MAUBURN AL 00:51:4100:08:2100:51:0400:08:15
2141151JIM GORRIE53MBIRMINGHAM AL 00:51:4900:08:2200:51:2400:08:18
215204TIM COLEMAN27MTUSCALOOSA AL 00:51:5200:08:2200:51:3900:08:20
216727STEVEN SPARKS29MSTEELE AL 00:51:5200:08:2200:51:3900:08:20
PlaceBibNAMEAgeSexCITY/STATETeamNameGunTimeGunPaceTagTimeTagPace
217224ALLEN CRAWFORD49MSPRINGVILLE AL 00:51:5700:08:2300:51:5700:08:23
218810DAVID WASHINGTON49MMERIDIANVILLE AL 00:51:5800:08:2300:51:4300:08:21
219958ROY CLARKSON39MTRUSSVILLE AL 00:51:5900:08:2300:51:5000:08:22
220236ANTHONY DANTONIO55MDECATUR AL 00:51:5900:08:2300:51:5900:08:23
221918OSCAR MUNOZ29MBIRMINGHAM AL 00:52:0600:08:2500:51:0300:08:15
222341SATYA GULLAPALLI44MHOOVER AL 00:52:0600:08:2500:51:4600:08:21
2231142MICHAEL POTTER37MJERSEY CITY NJ 00:52:0900:08:2500:52:0900:08:25
2241073SCOTT WINFREE28MHOMEWOOD AL 00:52:0900:08:2500:51:4300:08:21
2251039NORIYUKI HANASHIRO57MBIRMINGHAM AL 00:52:1600:08:2600:51:5800:08:23
226942JAMES WILLIAMS35MBIRMINGHAM AL 00:52:2300:08:2700:52:0900:08:25
227483CHAD LEE37MBIRMINGHAM AL 00:52:2500:08:2800:51:2100:08:17
228304BROOKS GANT42MVESTAVIA HILLS AL 00:52:4700:08:3100:52:2700:08:28
229305MICHAEL GEER50MBHAM AL 00:52:4900:08:3100:52:3600:08:29
2301059KEN PHILLIPS54MBIRMINGHAM AL 00:52:5300:08:3200:52:5300:08:32
231392MIKE HOOD57MSPRINGVILLE AL 00:52:5300:08:3200:52:5300:08:32
232173PAUL CHEEK36MBIRMINGHAM AL 00:53:0300:08:3400:52:4900:08:32
233584BRITTON NEAL50MBIRMINGHAM AL 00:53:0500:08:3400:52:5700:08:33
234320GERALD GILLESPY50MBIRMINGHAM AL 00:53:0600:08:3400:52:5800:08:33
235693TRAVIS SELF51MBIRMINGHAM AL 00:53:1800:08:3600:53:0300:08:34
236763STEVEN THOMPSON55MMOUNTAIN BROOK AL 00:53:1800:08:3600:52:3500:08:29
2371084JEFF MASSIEN65MBIRMINGHAM AL 00:53:2200:08:3700:53:1600:08:36
238111EKKEHARD BONATZ59MBIRMINGHAM AL 00:53:2300:08:3700:53:1000:08:35
239299RYAN FRIERY33MVESTAVIA HILLS AL 00:53:3000:08:3800:52:5800:08:33
2401050DAVID MANUSH24MBIRMINGHAM AL 00:53:4000:08:4000:53:2800:08:38
241168BRYAN CHACE59MBIRMINGHAM AL 00:53:4000:08:4000:53:3000:08:38
242880NITIN CHHABRA37MBIRMINGHAM AL 00:53:4100:08:4000:53:1900:08:36
243502THOMAS LOVE59MVESTAVIA HILLS AL 00:53:4300:08:4000:53:2800:08:38
244575BEN MOSELEY29MCENTER POINT AL 00:53:5300:08:4200:52:4900:08:32
2451063STEPHEN RUMBLE28MMARIETTA GA 00:53:5400:08:4200:53:3000:08:38
246569JASON MORRIS43MVESTAVIA AL 00:53:5700:08:4200:53:1400:08:36
247174ANDREW CHEELY46MSHERMAN TX 00:54:1800:08:4600:53:3000:08:38
PlaceBibNAMEAgeSexCITY/STATETeamNameGunTimeGunPaceTagTimeTagPace
248897DAVID HOGUE38MBIRMINGHAM AL 00:54:1800:08:4600:54:0100:08:43
249254BRAD DEUEL50MHOOVER AL 00:54:2200:08:4700:54:2200:08:47
250857SCOTT WOOD44MMORRIS AL 00:54:2300:08:4700:53:4200:08:40
251973TOM HOOPER44MNASHVILLE TN 00:54:2500:08:4700:53:4900:08:41
252883DOUGLAS DAVIS II36MTRUSSVILLE AL 00:54:2500:08:4700:53:1900:08:36
253963JAMIE COWIN50MBIRMINGHAM AL 00:54:2600:08:4700:54:1800:08:46
2541111FREDDY RUBIO44MBIRMINGHAM AL 00:54:3200:08:4800:54:2100:08:46
255774KIRK TOOLE43MPELHAM AL 00:54:3300:08:4800:54:3300:08:48
256679TYLER ROWE25MMOUNT OLIVE AL 00:54:3500:08:4900:54:1300:08:45
257448THOMAS KENDRICK55MHOMEWOOD AL 00:54:3700:08:4900:54:2800:08:47
258793MICHAEL VIZZINA44MBIRMINGHAM AL 00:54:3900:08:4900:54:3900:08:49
259571MATT MORRIS38MHELENA AL 00:54:4100:08:5000:54:3300:08:48
260976CHRISTOPHER HUGHES34MGARDENDALE AL 00:54:4100:08:5000:54:2300:08:47
261870MARK APPELBAUM56MEUGENE OR 00:54:4200:08:5000:54:3000:08:48
262932MIKE SHEPHERD59MHOOVER AL 00:54:4200:08:5000:54:3100:08:48
263871ROBERT APPELBAUM52MBIRMINGHAM AL 00:54:4300:08:5000:54:3100:08:48
2641163KEVIN RUGGIERO35MBIRMINGHAM AL 00:54:4900:08:5100:54:4900:08:51
265390RONNY HOLLAWAY62MBIRMINGHAM AL 00:54:5100:08:5100:54:2100:08:46
2661085BARRY HAMRIC45MBIRMINGHAM AL 00:54:5200:08:5100:54:3300:08:48
267589NICK NELSON31MBIRMINGHAM AL 00:55:0100:08:5300:54:2100:08:46
26828ALEX MORROW43MBIRMINGHAM AL 00:55:0100:08:5300:55:0100:08:53
269876JONATHAN BROWN26MGOOSE CREEK SC 00:55:0700:08:5400:54:2000:08:46
270627WALKER PHILLIPS13MBIRMINGHAM AL 00:55:1000:08:5400:54:4400:08:50
271999EDINSON RODRIGUEZ28MBIRMINGHAM AL 00:55:1100:08:5400:54:0900:08:44
272352ALAN HARGRAVE61MHOOVER AL 00:55:1700:08:5500:55:1700:08:55
273987MARSHALL MOORE24MATLANTA GA 00:55:1900:08:5600:54:5100:08:51
274891REESE GOODE33MBIRMINGHAM AL 00:55:2200:08:5600:54:3000:08:48
275503ANDREW LOVE48MVESTAVIA HILLS AL 00:55:2300:08:5600:55:2300:08:56
2761076CHRISTOPHER BALCERZAK32MHOOVER AL 00:55:2400:08:5700:55:2400:08:57
2771133PATRICK BRANNON34MBIRMINGHAM AL 00:55:2700:08:5700:55:2100:08:56
2781120JACKSON MCCARTHY46MBIRMINGHAM AL 00:55:2900:08:5700:55:2900:08:57
PlaceBibNAMEAgeSexCITY/STATETeamNameGunTimeGunPaceTagTimeTagPace
279776NICK TOTH35MBIRMINGHAM AL 00:55:4100:08:5900:54:5700:08:52
280172CHRIS CHAPMAN43MHOMEWOOD AL 00:55:4400:09:0000:55:1300:08:55
2811115KENNY FORTSON60MBIRMINGHAM AL 00:55:4900:09:0100:55:1800:08:56
2821054MATTHEW MITCHELL36MBIRMINGHAM AL 00:55:4900:09:0100:55:2400:08:57
283649STEPHEN PUDNER34MHOMEWOOD AL 00:55:4900:09:0100:55:1500:08:55
2841087JOSHUA BEAN41MGARDENDALE AL 00:55:5200:09:0100:55:0200:08:53
285348BRYAN HANCOCK43MHOMEWOOD AL 00:55:5200:09:0100:55:3600:08:58
286375JOHN HIGH51M  00:55:5400:09:0100:55:3600:08:58
2871026ROBERT CASEY33MALABASTER AL 00:56:0000:09:0200:55:0200:08:53
2881128TERRY SR EDWARDS47MODENVILLE AL 00:56:0000:09:0200:55:5300:09:01
2891068FREDDY TSE38MCHELSEA AL 00:56:0100:09:0200:55:0300:08:53
2901103ANIL CHADHA37MHOMEWOOD AL 00:56:0600:09:0300:55:4300:09:00
291241WILL DAVIS34MBIRMINGHAM AL 00:56:0700:09:0400:55:1600:08:55
292888KEY FOSTER14MBIRMINGHAM AL 00:56:0800:09:0400:56:0800:09:04
293141JEFF BURBANK54MMAYLENE AL 00:56:0900:09:0400:55:4200:09:00
294188SAM CLEMONS22MALABASTER AL 00:56:1100:09:0400:55:5600:09:02
29582DAVID BARRY54MBIRMINGHAM AL 00:56:1300:09:0400:55:3600:08:58
296207CLINTON COLMENARES47MVESTAVIA HILLS AL 00:56:1400:09:0500:55:3700:08:59
297568PHIL MORRIS44MCOLUMBIANA AL 00:56:1600:09:0500:56:0300:09:03
2981155RICK GRAMMER60MHOOVER AL 00:56:2700:09:0700:55:4600:09:00
299506CHRIS LYLES44MCALERA AL 00:56:2800:09:0700:56:1300:09:04
300228MARK CRISWELL50MWARRIOR AL 00:56:3000:09:0700:56:1900:09:05
301357ROBERT HARRIS33MLEEDS AL 00:56:3300:09:0800:55:2500:08:57
302977DUSTY JONES31MMCCALLA AL 00:56:4000:09:0900:56:0300:09:03
303773WILLIAM TOERPE30MBIRMINGHAM AL 00:57:0400:09:1300:56:3100:09:07
304363JOHNE HAWKINS51MBIRMINGHAM AL 00:57:0700:09:1300:57:0700:09:13
305586VAN NELSON57MGUIN AL 00:57:1300:09:1400:56:2600:09:07
306909TREY MCCLURE38MBIRMINGHAM AL 00:57:1400:09:1400:57:1400:09:14
307666STEVE RODGERS55MMERIDIANVILLE AL 00:57:1500:09:1400:57:1500:09:14
308577MIKE MOSES41MBIRMINGHAM AL 00:57:1900:09:1500:56:4500:09:10
309997COLIN RICHARDSON35MBIRMINGHAM AL 00:57:2400:09:1600:56:3800:09:08
PlaceBibNAMEAgeSexCITY/STATETeamNameGunTimeGunPaceTagTimeTagPace
310741ANDREW STEWART27MHOMEWOOD AL 00:57:2500:09:1600:56:3700:09:08
31164BEN ASHBY38MBIRMINGHAM AL 00:57:3300:09:1700:56:5500:09:11
312446RICHARD KELLEY38MATHENS AL 00:57:3300:09:1700:57:3300:09:17
313510ANDREW MACE33MHUNTSVILLE AL 00:57:3600:09:1800:57:0100:09:12
314753DANNY TACKETT10MBIRMINGHAM AL 00:57:3700:09:1800:56:4800:09:10
315253ADAM DESCHAMPS45MMOODY AL 00:57:4300:09:1900:56:3500:09:08
316540ANDREW MCKINNON41MBIRMINGHAM AL 00:57:5000:09:2000:57:3700:09:18
317967JORGE DE LA TORRE51MBIRMINGHAM AL 00:57:5300:09:2100:57:1300:09:14
318703FINN SHERER6MONEONTA ALVULCAN'S BUTTOCKS00:57:5800:09:2100:57:1400:09:14
319378NICK HILL51MPINSON AL 00:58:0700:09:2300:57:2100:09:15
320283JEFF FARMER38MTRUSSVILLE AL 00:58:1000:09:2300:57:5900:09:22
321892DOUG GREEN46MBIRMINGHAM AL 00:58:1400:09:2400:57:1300:09:14
3221016RONNIE YANCEY54MBIRMINGHAM AL 00:58:2500:09:2600:57:4600:09:20
323513ANDREW MARLIN50MBIRMINGHAM AL 00:58:2600:09:2600:57:4000:09:18
324886FRANK EGAN36MPELHAM AL 00:58:3200:09:2700:58:1400:09:24
325989SHAWN O'BRIEN43MBIRMINGHAM AL 00:58:3400:09:2700:57:3300:09:17
326804NEIL WALTON52MHOOVER AL 00:58:4300:09:2900:58:4300:09:29
327130CHARLIE BROWN60MBIRMINGHAM AL 00:58:4500:09:2900:58:3200:09:27
328277BENJAMIN ETHERIEDGE39MWARRIOR AL 00:58:4800:09:2900:58:1300:09:24
329395CHRIS HOOKS40MBIRMINGHAM AL 00:58:4900:09:3000:58:2800:09:26
3301153AIDAN VROCHER11MTRUSSVILLE AL 00:58:5200:09:3000:58:1400:09:24
331339MIKE GRIZZELL53MJASPER AL 00:59:0600:09:3200:58:0700:09:23
332933BUDDY SMITH56MBIRMINGHAM AL 00:59:0700:09:3300:58:3800:09:28
33394BRIAN BERG40MBIRMINGHAM AL 00:59:1400:09:3400:58:2300:09:25
334291JJ FOSTER32MTRUSSVILLE AL 00:59:1500:09:3400:58:5800:09:31
3351109DOUG ALLEN58MVESTAVIA HILLS AL 00:59:1900:09:3400:59:1900:09:34
3361116WILLIAM CROWSON55MBIRMINGHAM AL 00:59:2000:09:3500:58:4400:09:29
337105KEN BLACKMON55MBIRMINGHAM AL 00:59:2200:09:3500:59:1000:09:33
338752STEVEN TACKETT11MBIRMINGHAM AL 00:59:2700:09:3600:58:3800:09:28
339454JUSTIN KING33MVESTAVIA AL 00:59:3700:09:3700:58:2900:09:26
340263ALLAN DOWNS44MALABASTER AL 00:59:4300:09:3800:58:5500:09:31
PlaceBibNAMEAgeSexCITY/STATETeamNameGunTimeGunPaceTagTimeTagPace
3411147KNOX WILLIAMS49MBIRMINGHAM AL 00:59:4700:09:3900:59:3000:09:36
342960BARRY CONAWAY17MODENVILLE AL 00:59:4800:09:3900:59:4200:09:38
343208CHRIS COLPACK49MBIRMINGHAM AL 00:59:5000:09:3900:59:1200:09:33
344261NEIL DOUGHERTY27MMOODY AL 00:59:5300:09:4000:58:5500:09:31
3451056PHILIP OREILLY47MBIRMINGHAM AL 00:59:5500:09:4000:58:5800:09:31
346539MATT MCKENZIE32MBIRMINGHAM ALCOUNSELORS ON THE RUN00:59:5600:09:4000:59:2900:09:36
347957LEAH CHAPMAN28MVESTAVIA AL 00:59:5800:09:4100:59:1800:09:34
3481172JAMES RAMSEN34MTRUSSVILLE AL 00:59:5800:09:4100:59:1400:09:34
349823LANCE WEEKS51MMOUNT OLIVE AL 01:00:0100:09:4100:59:0900:09:33
350642JOHN PRESTRIDGE32MALABASTER AL 01:00:0200:09:4100:59:3300:09:37
3511065STEVE SMITH57MASHLAND AL 01:00:0200:09:4100:59:2700:09:36
352805SAM WARBINGTON60MBIRMINGHAM AL 01:00:0500:09:4200:59:5600:09:40
3531058JASON PENG27MBIRMINGHAMMINGHAM AL 01:00:0600:09:4200:59:4800:09:39
354146MOODY BURNS54MNORTHPORT AL 01:00:1100:09:4300:59:5600:09:40
355371GARRET HERRINGDON49MMAYLENE AL 01:00:1300:09:4300:59:1900:09:35
356391MICHAEL HOLMES45MCHELSEA AL 01:00:1700:09:4400:59:4700:09:39
357128RICHARD BROOME61MBIRMINGHAM AL 01:00:2100:09:4400:59:4300:09:38
358386PAUL HOFFMAN51MBIRMINGHAM AL 01:00:2300:09:4500:59:3900:09:38
3591113JARED LEADER24MVESTAVIA HILLS AL 01:00:2600:09:4501:00:0600:09:42
360660ANDREW RICKLES39MPINSON AL 01:00:2600:09:4500:59:3200:09:36
361547JAMES MERRELL48MBIRMINGHAM AL 01:00:2700:09:4500:59:2300:09:35
362724GENE SNOW60MALPHARETTA GA 01:00:2900:09:4601:00:0000:09:41
36371JEFF BAHR38MHOOVER AL 01:00:2900:09:4600:59:5100:09:40
364429FRANK JONES39MJASPER AL 01:00:3200:09:4601:00:2400:09:45
365711MIKE SLOANE59MMOUNTAIN BROOK AL 01:00:4000:09:4800:59:3300:09:37
366552SCOTT MISSILDINE53MDECATUR AL 01:00:4600:09:4901:00:2000:09:44
3671110JOHN SCOTT31MCHELSEA AL 01:00:5100:09:4901:00:1900:09:44
368370RAYMOND HERB54MCHELSEA AL 01:00:5800:09:5001:00:5800:09:50
369470KEVIN LANE42MBIRMINGHAM AL 01:01:0000:09:5101:01:0000:09:51
3701160JACOB HUFFSTUTLER30MHELENA AL 01:01:0000:09:5101:00:2100:09:44
371142BRETT BURBANK21MMAYLENE AL 01:01:0200:09:5101:00:3500:09:47
PlaceBibNAMEAgeSexCITY/STATETeamNameGunTimeGunPaceTagTimeTagPace
372854STEVE WISEMAN60MBIRMINGAHM AL 01:01:0400:09:5101:01:0400:09:51
373708ROBERT SIMS58MHOMEWOOD AL 01:01:1000:09:5201:00:2000:09:44
374985PAUL MATHEWS41MBIRMINGHAM AL 01:01:1200:09:5301:00:0900:09:43
375935DAN THOMASSON43MMOUNTAIN BROOK AL 01:01:1300:09:5301:00:5400:09:50
376701JEREMY SHERER36MONEONTA ALVULCAN'S BUTTOCKS01:01:1400:09:5301:00:3000:09:46
377333KEVIN GRAY40MHOOVER AL 01:01:1900:09:5401:00:2000:09:44
378493CHARLES LOCKHART62MVESTAVIA HILLS AL 01:01:2400:09:5501:00:5000:09:49
379969CHIP FERRELL31MBIRMINGHAM AL 01:01:2800:09:5501:00:5800:09:50
380664GORDIE ROBINSON59MBIRMINGHAM AL 01:01:2800:09:5501:00:3200:09:46
381490DAVID LINK55MBIRMINGHAM AL 01:01:2900:09:5501:00:1800:09:44
382784WARREN VANDENTOP43MBIRMINGHAM AL 01:01:2900:09:5501:01:1300:09:53
3831130TERRY JR EDWARDS17MARGO AL 01:01:3900:09:5701:01:3200:09:56
384899MICHAEL HOLT51MBIRMINGHAM AL 01:01:4100:09:5701:01:2800:09:55
385368VICTOR HENKEN53MHOMEWOOD AL 01:01:4400:09:5801:01:1800:09:54
386769BRANDON THURBER34MIRONDALE AL 01:01:4700:09:5801:00:5600:09:50
387367TED HEGENBARTH74MGADSON AL 01:01:4800:09:5901:01:2600:09:55
388573JACK MORROW14MBIRMINGHAM AL 01:01:5000:09:5901:01:1100:09:53
389485TIM LEMSKY46MBIRMINGHAM AL 01:01:5200:09:5901:01:5200:09:59
3901164TODD HONEA38MWESTOVER AL 01:01:5500:10:0001:01:1100:09:52
391596PAT O'BRIEN69MALABASTER AL 01:01:5800:10:0001:01:0300:09:51
392704RONALD SHINN66MBIRMINGHAM AL 01:01:5900:10:0001:01:5900:10:00
3931005KYLE SMITH46MCLANTON AL 01:02:0600:10:0101:01:0800:09:52
394750WES TACKETT38MBIRMINGHAM AL 01:02:1700:10:0301:01:2500:09:55
395158DOUG CARDER44MVESTAVIA AL 01:02:1700:10:0301:01:4500:09:58
396766PHILIP THOMPSON35MBIRMINGHAM AL 01:02:2100:10:0401:02:1100:10:02
397970KENYA FRANKLIN43MBIRMINGHAM AL 01:02:2500:10:0401:01:2900:09:55
3981168RANDY ALDRICH51MTRUSSVILLE AL 01:02:3700:10:0601:02:1000:10:02
3991143STEPHEN BLANKENSHIP42MJASPER AL 01:02:4500:10:0801:01:5400:10:00
400306SCOTT GEORGE52MBIRMINGHAM AL 01:03:0900:10:1201:03:0900:10:12
401906CHRIS LENOIR41MCALERA AL 01:03:1000:10:1201:02:3100:10:05
4021009LUIS VALVERDE43MBIRMINGHAM AL 01:03:1200:10:1201:02:4800:10:08
PlaceBibNAMEAgeSexCITY/STATETeamNameGunTimeGunPaceTagTimeTagPace
403944MILES WRIGHT48MHOMEWOOD AL 01:03:1600:10:1301:02:4400:10:07
404170ANDREW CHAMBERLAIN38MHELENA AL 01:03:1900:10:1301:02:1500:10:03
405546ZULFI MERCHANT49MHELENA AL 01:03:2000:10:1301:02:3700:10:06
406463MATTHEW LACKEY39MBIRMINGHAM AL 01:03:3200:10:1501:02:5800:10:10
407330GREG GRAHAM57MHOMEWOOD AL 01:03:3300:10:1501:02:4700:10:08
408974BILL HOST58MIRONDALE AL 01:03:3300:10:1501:02:4600:10:08
409138DOUG BRYSON54MBIRMINGHAM AL 01:03:3900:10:1601:03:3000:10:15
410780JASON TURNBOW40MBIRMINGHAM AL 01:03:5500:10:1901:03:2000:10:13
411124HUNTER BRIDWELL32MBESSEMER AL 01:03:5700:10:1901:03:4600:10:18
41281MATTHEW BARNES32MBIRMINGHAM AL 01:04:0900:10:2101:03:3700:10:16
413464NICHOLAS LAFOUNTAIN45MSAINT CLOUD FL 01:04:1700:10:2301:03:3400:10:16
414721JORDAN SMITH24MBIRMINGHAM AL 01:04:2500:10:2401:04:2500:10:24
415732VASTINE STABLER53MBIRMINGHAM AL 01:04:4600:10:2701:04:2000:10:23
416209KEN COLVERT37MDORA AL 01:04:4700:10:2701:04:2100:10:23
417133GRAHAM BROWN30MVESTAVIA HILLS AL 01:04:5300:10:2801:03:5400:10:19
4181013MICHAEL WOLFE43MBIRMINGHAM AL 01:04:5400:10:2801:04:3800:10:26
419309DARRELL GIBSON44MHOMEWOOD AL 01:05:0700:10:3101:04:1600:10:22
4201036GEORGE GASKIN30MHOMEWOOD AL 01:05:0700:10:3101:04:1100:10:22
421733ALLAN STAMM66MBIRMINGHAM AL 01:05:0800:10:3101:04:2700:10:24
422841JACK WILBANKS16MSYLACAUGA AL 01:05:1100:10:3101:04:1900:10:23
4231140CLAYTON TURNER33MADAMSVILLE AL 01:05:1400:10:3201:04:0700:10:21
424881HENRY CHRISTIAN48MCHELSEA AL 01:05:2500:10:3401:05:0700:10:31
4251121JEFF PARMER51MMOUNTAIN BROOK AL 01:05:2600:10:3401:04:5500:10:29
426905MATTHEW LEDUKE44MGUIN AL 01:05:2900:10:3401:04:4200:10:27
427585MATT NEIGHBORS30MTUSCALOOSA AL 01:05:4500:10:3701:05:2400:10:33
4281124RICHARD BOTTSFORD59MBIRMINGHAM AL 01:05:5400:10:3801:05:5400:10:38
4291152RANDALL HUDSON51MGARDENDALE AL 01:05:5500:10:3801:05:5500:10:38
4301066KEVIN TAYLOR30MCALERA AL 01:05:5600:10:3801:05:3300:10:35
4311096THOMAS HALL55MBIRMINGHAM AL 01:05:5900:10:3901:04:5700:10:29
432782LARRY TYSON62MBIRMINGHAM ALCOUNSELORS ON THE RUN01:06:0100:10:3901:05:3200:10:35
4331032ALAN DEMARCO42MBESSEMER AL 01:06:0500:10:4001:05:2600:10:34
PlaceBibNAMEAgeSexCITY/STATETeamNameGunTimeGunPaceTagTimeTagPace
434874ROGER BOAZ37MMC CALLA AL 01:06:0600:10:4001:05:2500:10:33
435574SAM MORROW14MBIRMINGHAM AL 01:06:1700:10:4201:05:3900:10:36
436775CHRIS TOTH60MPELHAM AL 01:06:2600:10:4301:05:4200:10:36
437474JOSEPH LAWHORN33MHOOVER AL 01:06:3500:10:4501:06:1300:10:41
438321JOSH GLIDEWELL29MTRUSSVILLE AL 01:06:4600:10:4701:05:3800:10:36
439783CLARK UNDERBAKKE45MBIRMINGHAM AL 01:06:5000:10:4701:06:0100:10:39
440428GORMAN JONES56MBIRMINGHAM AL 01:06:5000:10:4701:06:0200:10:39
441954SETH CANNON32MHOOVER AL 01:06:5300:10:4801:06:1200:10:41
442824LARRY WELLS56MBIRMINGHAM AL 01:07:1300:10:5101:06:0500:10:40
443656JOE REISS49MHOOVER AL 01:07:2400:10:5301:06:4300:10:46
444798MATTHEW WALKER35MHOMEWOOD AL 01:07:2600:10:5301:07:2600:10:53
44562FRANK ANGSTADT27MHOOVER AL 01:07:2800:10:5301:06:3900:10:45
44641CHETHAN ACHARYA38MBIRMINGHAM AL 01:07:3600:10:5501:07:1300:10:51
447668WILLIAM ROHRER29MNORTHPORT AL 01:07:4900:10:5701:06:5300:10:48
448808KYLE WARRAM36MHELENA AL 01:07:4900:10:5701:06:5300:10:48
449298DEAN FRIERY38MWEST MONROE LA 01:07:5200:10:5701:07:2000:10:52
450802DON WALSTON56MBIRMINGHAM AL 01:07:5300:10:5701:06:5500:10:48
451302JEFFREY FUQUA48MBIRMINGHAM AL 01:08:0100:10:5901:08:0100:10:59
4521062KEITH RICHARDSON48MBIRMIBIRMINGHAMNGHAM A 01:08:0200:10:5901:07:2500:10:53
453619DUSTIN PENDEL28MHOMEWOOD AL 01:08:2000:11:0201:07:3700:10:55
454417PAUL JERNIGAN38MHOOVER AL 01:08:2800:11:0301:08:2800:11:03
45547ED ALDERSON63MBIRMINGHAM AL 01:08:3100:11:0401:08:0000:10:58
456472RICHARD LANGSTON58MPLEASANT GROVE AL 01:08:3800:11:0501:07:2400:10:53
457529WILLIAM MCCALLEY47MBIRMINGHAM AL 01:08:5100:11:0701:08:2000:11:02
4581031BROOKS COWING27MATLANTA GA 01:08:5800:11:0801:07:5900:10:58
459526STUART MCATEE49MBIRMINGHAM AL 01:09:1500:11:1101:08:1700:11:01
460312PHILIP GIBSON31MIRONDALE AL 01:09:3700:11:1401:08:4200:11:05
461107LARRY BOACKLE57MWARRIOR AL 01:09:5200:11:1701:08:5500:11:07
462715CHRIS SMITH60MFULTONDALE AL 01:10:0000:11:1801:09:3800:11:14
4631138JONATHAN MCCONNELL33MHOMEWOOD AL 01:10:1700:11:2101:09:1100:11:10
464413JAMES JACKSON68MVESTAVIA AL 01:10:2800:11:2201:09:2500:11:12
PlaceBibNAMEAgeSexCITY/STATETeamNameGunTimeGunPaceTagTimeTagPace
4651119JAN EWERS38MBIRMINGHAM AL 01:10:3400:11:2301:10:2700:11:22
4661041LOGAN HOLMES24MBIRMINGHAM AL 01:10:5500:11:2701:10:2100:11:21
467541JOSH MCLAUGHLIN30MTRUSSVILLE AL 01:11:3400:11:3301:10:5900:11:27
468837TREY WHITT44MBIRMINGHAM AL 01:11:3500:11:3301:10:5000:11:26
4691089JIM COBLE41MHOOVER AL 01:11:3800:11:3401:10:5100:11:26
470789GRANT VENABLE26MHOOVER AL 01:11:5400:11:3601:11:1600:11:30
471290EMANUEL FOSTER36MBESSEMER AL 01:12:0100:11:3701:11:3200:11:33
472486ROBERT LENOIR64MPINSON AL 01:12:2000:11:4001:11:4100:11:34
473889DINKS GASKIN65MBIRMINGHAM AL 01:12:2400:11:4101:11:2600:11:32
47478HUNTER BALLARD24M  01:12:2900:11:4201:12:2900:11:42
475922GRISSOM PIERCE13MBIRMINGHAM AL 01:12:3000:11:4201:11:2900:11:32
476921DEREK PIERCE48MBIRMINGHAM AL 01:12:3000:11:4201:11:2900:11:32
477605RANDALL PALMORE59MPINSON AL 01:12:4100:11:4401:12:0800:11:38
47859GEORGE ANDERSON51MBIRMINGHAM AL 01:12:4200:11:4401:12:0800:11:39
4791126PARKER DOBBINS44MBIRMINGHAM AL 01:13:1100:11:4901:10:4300:11:25
480237JIM DARGAN58MVINCENT AL 01:13:1500:11:4901:12:0300:11:38
481438DAVID KAHN53MBIRMINGHAM ALCADENCE RUN COACHING BLUE01:14:0800:11:5801:14:0800:11:58
482260ANDREW DOGGRELL43MBIRMINGHAM AL 01:14:4100:12:0301:13:4800:11:55
483543JON MCWHORTER40MLEEDS AL 01:15:1000:12:0801:14:4000:12:03
484459ROBERT KRACKE44MVESTAVIA AL 01:15:1400:12:0801:14:1400:11:59
4851003JUSTIN SMITH33MBIRMINGHAM AL 01:15:3000:12:1101:14:5800:12:06
486535RICKY MCDOUGAL30MHUNTSVILLE AL 01:15:5200:12:1501:14:4800:12:04
487149JIM BYRD60MBIRMINGHAM AL 01:15:5200:12:1501:14:4800:12:04
488815JEFF WAYMAN63MEAST TEMPLETON MA 01:15:5500:12:1501:14:4900:12:04
489162MARK CARTER62MMOUNTAIN BROOK AL 01:16:4400:12:2301:16:4400:12:23
490980JOSEPH KULOVITZ31MBIRMINGHAM AL 01:16:5100:12:2401:16:1100:12:18
49184JIM BASINGER59MBIRMINGHAM AL 01:17:0500:12:2601:16:3000:12:21
492406DAVE HUGHES51MBESSEMER AL 01:17:2300:12:2901:16:2000:12:19
49396MAX BERUEFFY63MBIRMINGHAM AL 01:17:4800:12:3301:16:4800:12:24
494550BILL MILLER40MCHELSEA AL 01:18:1500:12:3801:17:2700:12:30
495289GABRIEL FLORES39MPELL CITY AL 01:18:2100:12:3901:17:0300:12:26
PlaceBibNAMEAgeSexCITY/STATETeamNameGunTimeGunPaceTagTimeTagPace
496791BEN VINES26MUNITED STATES AL 01:18:4500:12:4201:18:1500:12:38
497186BRETT CLEMONS44MGARDENDALE AL 01:19:5800:12:5401:19:4000:12:51
4981024JASON BOOI35MAUSTELL GA 01:20:3400:13:0001:20:0100:12:55
499952JOSEPH BRAKHAGE34MSTERRETT AL 01:20:3600:13:0001:19:5900:12:54
500713DANIEL SMART54MINDIAN SPRINGS AL 01:20:5000:13:0301:19:5700:12:54
501691CHARLIE SEAGLE55MVESTAVIA AL 01:21:3100:13:0901:20:2500:12:59
50273LES BAILEY65MBIRMINGHAM AL 01:21:3800:13:1001:20:5100:13:03
50356GERALD ANDERSON68MVESTAVIA HILLS AL 01:21:5000:13:1201:20:4400:13:02
504100WILL BISHOP22MHUNTSVILLE AL 01:22:5400:13:2301:22:5400:13:23
505109LEWIS BOLTZ34MHELENA AL 01:24:2300:13:3701:23:2300:13:27
506143JEROME BURKES65MBIRMINGHAM AL 01:24:4500:13:4101:24:1700:13:36
507843RANDY WILHITE62MDORA AL 01:24:4800:13:4101:24:4800:13:41
508536ROBERT MCELROY45MBIRMINGHAM AL 01:24:5300:13:4201:24:2400:13:37
509443HERB KEEFER53MHUEYTOWN AL 01:27:0100:14:0301:26:2800:13:57
510342SQUIRE GWIN71MBIRMINGHAM AL 01:27:2000:14:0601:26:1800:13:56
511634RICHARD POFF46MPELHAM AL 01:32:3000:14:5601:32:0300:14:51
512192RAFE CLOE80MVESTAVIA AL 01:32:5900:15:0001:31:5300:14:50
513193DAVID CLOE48MARLINGTONR VA 01:32:5900:15:0001:31:5400:14:50
5141019CJ ALVERSON49MCANTON GA 01:38:0000:15:4901:37:0500:15:40
515609TODD PARRISH43MTRUSSVILLE AL 01:49:3500:17:4101:49:0400:17:36
516861XING WU56MHOOVER AL 01:49:3800:17:4101:48:2300:17:29

** Results are for the private use of participants and are the Intellectual Property of Set Up Events. Unauthorized use of these results is prohibited.